Vertical_Velocity
-1 0 -0 0 -0 -1 -1 -0 1 1 -0 -1 -2 -0 -1 -1 1 -2 -1 -1 -1 -1 -2 -3 -0 -2 -4 -4 -2 2 3 -0 -2 -0 -2 -1 -3 0 -0 0 -0 -0 -1 0 0 -2 -0
-2 -1 -1 -0 -0 -1 0 0 -0 -1 0 1 0 -1 -2 -0 1 -1 -1 -1 0 -1 -2 -3 -1 -0 -2 -6 2 0 -1 2 -2 -4 -1 -0 1 2 0 -0 -1 0 -0 -1 -1 -1 1
-1 0 -2 -1 1 1 -0 -0 0 -0 -2 -1 -1 -1 -1 2 1 -2 -0 -0 -2 -1 -2 -3 -1 -1 -1 2 2 -0 -2 -1 -0 -1 -3 -1 0 1 2 -1 0 0 -0 -0 0 -1 -1
-1 1 1 -1 0 -1 0 -2 -2 -1 1 -1 1 -0 -3 -2 1 -0 -1 -1 -1 -0 -1 -1 -2 -1 -3 0 2 0 -0 3 3 -1 -1 -2 -0 2 -1 2 -1 -1 -4 -1 -4 1 -2
1 -3 2 -1 0 -3 -1 -0 -1 -0 0 -1 0 -2 -0 -2 -1 -1 0 -2 -3 -1 -1 -1 -3 -2 -4 3 -6 -1 -1 -3 -0 2 -1 -1 -0 -1 -1 -2 -3 -3 -1 -0 -3 -0 -0
-4 0 -0 0 1 -0 -1 -2 1 -2 1 0 -0 -2 -1 -1 -3 -1 -1 -1 -3 -2 0 -2 -1 -3 -2 -7 -5 3 1 -1 -3 2 1 -1 -2 -2 -3 -3 -1 -0 -1 -0 -0 -2 -0
-2 -2 -1 -0 1 -1 1 -3 -1 -0 -0 -2 2 -3 0 0 -0 -2 3 -1 -2 -2 -2 -3 -2 -2 -1 4 -3 3 -2 -1 -1 -1 -2 -1 -8 -0 0 1 -0 -0 -0 0 -1 -0 0
-0 -1 -4 -0 1 -1 1 1 -3 1 -2 -2 -0 -1 -2 -1 -2 -1 -1 -3 -1 0 -5 0 0 -1 -0 -1 -4 1 -2 -7 -4 -0 -2 -8 -0 -1 0 0 -0 -0 -0 -1 -3 -1 -0
0 1 -3 -3 0 1 -0 5 -4 -1 2 -4 0 -1 0 -1 0 -3 -2 -2 1 -3 -1 -2 -0 -0 -0 1 -1 -4 -3 1 -1 -2 -0 -0 -2 0 -0 -0 -2 -0 0 -0 1 -2 -1
1 1 -2 -2 -2 1 -0 2 1 -1 -0 -3 0 -2 -2 -1 -1 -1 -3 -1 -0 0 -7 -11 -3 -0 1 -0 -2 0 -0 0 -2 1 0 -1 -2 0 -1 -0 -1 -1 0 1 0 -3 -2
3 1 1 -0 -2 -1 0 -0 1 1 -0 -2 1 0 -3 -1 -0 -1 -1 -1 0 1 -12 -17 -6 0 0 -1 0 -1 0 2 0 -1 -6 -7 -1 -1 -1 0 -0 -3 0 0 0 -0 -1
-0 1 -0 2 -3 -1 -1 -1 1 -1 1 1 -3 1 -3 0 -1 -0 1 1 -2 -24 -14 -8 -2 -4 -7 -1 -2 -5 -1 1 1 -0 -1 -1 -0 -0 -1 -1 1 -1 0 -1 -1 -1 -3
1 -3 -1 2 0 -2 -1 -1 0 0 -2 -2 3 -4 -0 -1 -3 -1 -1 1 -18 -12 -8 -10 -3 -1 0 -2 -4 -2 -2 -5 -3 -7 -4 -5 -1 -1 1 -1 -2 -3 -4 -4 -7 -5 -5
2 -2 1 -2 4 -1 -1 -2 -2 1 -1 1 -4 2 -3 -4 -0 -1 -1 -9 -9 -3 -2 -2 0 -2 1 -0 -2 -2 -1 -3 -1 -2 -1 -0 -18 -1 -1 -0 -3 1 -0 -5 -1 -1 -2
4 -0 3 -5 2 2 -2 1 -2 -0 -0 0 -1 0 -3 1 -1 -0 -0 -5 -8 -2 -1 0 -3 -1 -2 -1 1 -2 -0 -0 -1 -1 -3 -2 -6 -3 0 0 -0 -1 -2 -0 -2 -0 -1
-1 5 -2 0 -3 2 -0 1 -1 -0 1 -3 2 -3 1 1 -2 -1 -6 -3 -1 -1 -1 -1 -0 -1 0 -1 -3 -2 -1 -4 -0 -0 -0 -1 -5 -2 -3 -0 -1 0 -3 -5 -3 -1 -1
-4 4 1 -2 -2 -0 -0 0 -1 -0 -1 -1 0 -1 -1 1 1 -2 -4 -4 -1 -1 -1 -4 -1 0 -1 -0 0 -0 -3 -5 0 1 -0 -1 -3 -10 -1 -1 -1 -2 -1 -1 -3 -2 -1
-3 -1 2 -1 -6 4 -3 1 -1 -0 1 1 -2 -4 1 2 -1 0 -0 -2 1 -0 1 -0 0 0 -1 -0 0 0 -1 -1 0 -1 -0 -2 -2 -1 -6 -1 -1 -1 -1 -2 -3 -4 -1
3 -4 5 -6 -6 3 0 -2 0 -1 3 -1 -1 -0 -1 -1 -2 -1 -1 -1 -0 1 -1 1 -0 -1 -0 -0 -1 0 -0 -1 0 -0 -3 -4 -3 -3 -13 -2 0 0 -0 -1 -0 -1 -3
-5 -2 0 -2 -1 -2 2 -4 3 -4 -1 1 -0 -5 0 1 -0 -0 0 -2 -1 0 0 -0 -1 0 1 0 -0 -2 -1 -1 -1 0 1 1 -0 -4 -6 -11 -2 1 0 0 -2 0 -4
8 -6 -4 -3 1 -0 0 -4 5 -0 -6 3 -1 -2 -1 -3 -1 -0 1 0 0 -1 -0 1 -0 -0 -4 0 0 -1 -0 -2 1 0 1 -2 -0 1 -2 -1 1 -0 0 -1 1 -6 0
5 -9 -9 -3 2 -2 1 1 2 -1 -5 0 0 -1 -0 -0 0 1 -0 -3 -0 -2 -3 -1 0 -0 0 -1 -8 -3 -0 -0 -3 2 0 0 -3 1 -3 -1 1 0 -1 0 -0 -2 1
-7 -10 -4 1 3 -2 5 -0 -0 -3 2 -3 0 1 -2 -0 0 -1 -4 -3 -2 -0 -3 0 -3 -1 1 -13 0 -3 -0 0 -2 -5 -1 -1 -1 -1 -5 -0 -1 -2 -5 -1 -1 0 -4
-5 -7 3 1 2 -0 3 2 2 -2 -3 5 -7 5 -2 -4 0 -3 0 0 0 -1 -1 -0 1 -0 -5 -1 1 0 2 2 4 -2 -1 -1 -0 -0 -2 -2 -2 -15 -0 -2 -2 -2 0
-4 -1 4 1 -3 3 -10 4 0 -5 7 -8 -1 -1 -0 -1 0 -2 1 -0 -0 -0 0 -0 -5 -0 2 2 -2 -3 -5 -3 -2 -0 1 -1 -2 -1 -0 -1 -11 -5 -1 -4 -5 -8 -2
-0 2 -0 5 -10 3 7 0 -2 7 -5 -6 2 -3 -0 -3 -8 1 0 1 -0 -0 -3 -2 -2 1 3 -1 -1 -0 -3 -5 -3 0 -0 -0 -1 -2 0 1 -3 -8 -0 -1 -1 -9 -2
7 4 -2 2 2 -1 -4 3 2 -8 -0 2 -2 1 2 1 -15 4 -3 -2 1 1 -1 -1 -1 0 1 -0 1 -1 -3 -5 -3 -1 -0 1 1 -2 -1 -1 -10 -5 -1 0 -2 -23 -2
1 4 -1 -2 0 2 -1 1 3 3 3 3 -6 0 8 3 -14 -6 3 -6 4 1 0 -3 -5 -1 1 1 1 -4 1 -5 0 -4 -6 -7 -5 -2 1 2 -13 2 0 -5 -17 -2 -2
2 1 4 5 5 1 2 1 1 -1 -2 0 6 -1 5 19 -7 4 -2 -8 -1 -4 15 3 -3 -1 -2 -1 -0 0 0 1 -2 -3 1 -5 -11 -8 -13 -19 -2 -4 1 -2 -1 2 -2
Height
1559 1559 1557 1556 1553 1551 1549 1547 1545 1545 1544 1543 1542 1541 1541 1539 1539 1538 1536 1535 1533 1530 1528 1525 1523 1520 1518 1517 1515 1512 1509 1506 1504 1502 1501 1499 1498 1498 1497 1497 1496 1496 1494 1493 1492 1490 1489
1560 1559 1558 1556 1554 1551 1549 1547 1546 1545 1544 1543 1542 1541 1540 1539 1538 1538 1537 1535 1533 1530 1528 1526 1524 1522 1519 1518 1515 1512 1508 1506 1504 1503 1502 1501 1500 1499 1498 1497 1496 1495 1494 1493 1493 1492 1491
1560 1560 1558 1556 1554 1552 1550 1548 1547 1545 1544 1543 1541 1540 1539 1538 1538 1537 1536 1535 1533 1531 1528 1526 1524 1522 1520 1520 1515 1512 1509 1506 1504 1503 1502 1501 1500 1500 1498 1496 1495 1494 1495 1492 1493 1492 1490
1561 1560 1558 1557 1555 1553 1550 1549 1548 1546 1544 1543 1541 1539 1538 1538 1537 1536 1535 1534 1532 1531 1528 1526 1524 1522 1520 1518 1515 1513 1510 1507 1505 1503 1502 1501 1500 1499 1498 1496 1495 1495 1497 1499 1492 1491 1491
1561 1560 1559 1558 1557 1555 1551 1548 1548 1546 1544 1543 1541 1539 1537 1537 1536 1536 1535 1533 1532 1530 1528 1526 1524 1522 1521 1519 1516 1513 1510 1507 1504 1502 1501 1500 1500 1499 1497 1499 1500 1502 1502 1501 1494 1490 1490
1561 1560 1559 1558 1557 1556 1553 1549 1547 1547 1545 1544 1542 1540 1537 1537 1536 1535 1533 1532 1531 1530 1527 1525 1524 1526 1522 1519 1516 1513 1511 1508 1505 1502 1501 1500 1499 1501 1503 1502 1507 1506 1502 1500 1499 1493 1491
1560 1560 1559 1558 1557 1556 1554 1551 1548 1547 1545 1544 1542 1541 1539 1537 1536 1534 1533 1530 1532 1532 1529 1529 1529 1526 1524 1521 1517 1515 1511 1509 1506 1505 1506 1502 1507 1509 1507 1506 1505 1504 1504 1504 1496 1494 1494
1559 1559 1559 1558 1557 1556 1554 1552 1549 1547 1546 1544 1543 1541 1540 1538 1536 1535 1534 1531 1533 1535 1531 1528 1527 1525 1523 1522 1519 1516 1513 1511 1510 1512 1507 1508 1509 1506 1504 1503 1504 1503 1503 1502 1498 1495 1494
1558 1558 1557 1557 1556 1556 1554 1552 1550 1548 1547 1545 1543 1541 1540 1538 1537 1536 1534 1534 1533 1532 1532 1528 1527 1525 1524 1523 1520 1517 1515 1513 1512 1512 1513 1512 1508 1504 1502 1504 1504 1504 1504 1504 1504 1499 1496
1557 1556 1556 1556 1555 1554 1554 1553 1550 1549 1547 1546 1544 1542 1540 1538 1539 1536 1535 1534 1533 1533 1539 1532 1526 1526 1525 1522 1520 1517 1516 1516 1513 1514 1512 1511 1507 1507 1504 1504 1505 1506 1505 1503 1502 1503 1505
1555 1555 1555 1554 1554 1554 1553 1552 1550 1549 1548 1545 1544 1542 1541 1538 1538 1537 1537 1534 1533 1534 1561 1531 1527 1526 1523 1524 1522 1518 1516 1514 1515 1515 1516 1512 1509 1509 1507 1506 1505 1506 1504 1504 1504 1507 1507
1553 1553 1553 1554 1553 1554 1553 1552 1551 1549 1546 1545 1543 1542 1541 1540 1538 1538 1536 1534 1535 1547 1561 1536 1529 1528 1525 1522 1522 1519 1517 1516 1514 1514 1514 1514 1510 1509 1508 1507 1505 1504 1504 1507 1513 1513 1516
1551 1551 1551 1552 1552 1552 1552 1551 1550 1548 1546 1544 1543 1542 1540 1540 1539 1537 1536 1535 1549 1558 1541 1535 1534 1531 1531 1528 1522 1522 1523 1522 1524 1526 1525 1517 1511 1510 1508 1507 1506 1506 1511 1519 1517 1518 1512
1548 1548 1550 1550 1551 1551 1551 1550 1549 1547 1545 1544 1542 1541 1540 1539 1538 1537 1536 1537 1550 1540 1541 1536 1535 1532 1531 1529 1525 1524 1525 1529 1523 1525 1533 1530 1525 1512 1510 1510 1510 1511 1513 1520 1517 1520 1515
1547 1545 1547 1548 1549 1549 1549 1548 1548 1546 1544 1542 1540 1539 1538 1538 1537 1537 1538 1552 1541 1539 1536 1537 1535 1532 1532 1529 1530 1526 1525 1527 1524 1522 1526 1531 1523 1512 1511 1510 1512 1512 1514 1516 1519 1526 1521
1543 1543 1544 1545 1547 1546 1547 1546 1546 1544 1542 1541 1539 1537 1536 1536 1536 1537 1539 1539 1535 1532 1534 1536 1536 1536 1535 1532 1531 1530 1526 1521 1521 1521 1522 1524 1530 1513 1511 1511 1512 1512 1514 1515 1522 1513 1511
1540 1540 1541 1542 1544 1545 1544 1544 1543 1542 1540 1539 1538 1535 1535 1535 1535 1536 1544 1538 1533 1532 1532 1535 1535 1535 1536 1534 1532 1531 1525 1520 1519 1520 1522 1523 1526 1516 1513 1512 1512 1516 1515 1518 1519 1518 1509
1536 1537 1538 1539 1542 1542 1542 1542 1540 1540 1538 1537 1536 1536 1535 1535 1538 1536 1537 1532 1531 1530 1531 1532 1533 1534 1533 1531 1531 1529 1527 1521 1518 1518 1520 1522 1526 1524 1512 1510 1510 1512 1511 1513 1515 1511 1519
1532 1533 1535 1537 1540 1540 1540 1539 1538 1537 1536 1536 1534 1534 1533 1534 1538 1537 1532 1531 1530 1530 1530 1532 1533 1533 1532 1532 1530 1525 1522 1518 1518 1518 1520 1521 1526 1532 1510 1511 1511 1510 1508 1509 1514 1516 1511
1529 1530 1532 1534 1537 1538 1537 1537 1535 1534 1534 1535 1534 1534 1532 1532 1532 1533 1531 1529 1528 1527 1528 1528 1528 1529 1531 1531 1530 1525 1521 1516 1517 1519 1519 1518 1522 1519 1521 1506 1504 1505 1503 1506 1506 1514 1498
1524 1527 1530 1532 1534 1534 1534 1533 1532 1531 1532 1534 1532 1531 1530 1532 1530 1531 1532 1530 1527 1526 1527 1526 1526 1526 1527 1529 1527 1528 1522 1517 1515 1516 1518 1520 1521 1519 1507 1505 1506 1499 1494 1497 1503 1492 1490
1522 1525 1527 1530 1531 1531 1531 1530 1528 1528 1529 1531 1530 1530 1530 1530 1530 1530 1529 1527 1525 1523 1524 1523 1525 1520 1524 1525 1519 1518 1517 1516 1513 1515 1516 1518 1516 1514 1508 1498 1502 1497 1487 1488 1486 1484 1486
1519 1523 1526 1529 1528 1528 1527 1526 1524 1524 1526 1525 1527 1528 1527 1528 1528 1528 1525 1521 1520 1521 1517 1517 1517 1520 1522 1515 1510 1508 1510 1509 1508 1509 1513 1515 1517 1517 1508 1500 1498 1488 1472 1477 1476 1476 1471
1519 1523 1525 1526 1526 1526 1525 1525 1522 1522 1523 1522 1525 1527 1526 1527 1526 1524 1520 1520 1518 1518 1518 1514 1514 1515 1511 1509 1508 1506 1505 1502 1502 1500 1502 1509 1513 1515 1509 1503 1497 1462 1463 1464 1467 1462 1463
1520 1521 1522 1523 1524 1524 1524 1524 1522 1522 1522 1521 1524 1524 1525 1524 1522 1518 1518 1517 1516 1514 1514 1512 1509 1507 1507 1507 1509 1507 1505 1500 1494 1495 1497 1499 1505 1507 1505 1505 1483 1459 1461 1463 1463 1454 1451
1518 1519 1521 1521 1522 1522 1523 1522 1523 1521 1520 1522 1523 1522 1524 1523 1516 1515 1516 1517 1516 1512 1510 1506 1505 1504 1505 1506 1509 1508 1505 1496 1492 1496 1498 1500 1501 1505 1511 1502 1480 1453 1454 1456 1456 1457 1443
1515 1516 1517 1517 1519 1520 1520 1520 1520 1519 1519 1520 1519 1520 1520 1518 1512 1512 1513 1515 1513 1511 1510 1505 1503 1502 1503 1505 1507 1507 1500 1493 1491 1487 1499 1503 1505 1498 1494 1498 1480 1454 1452 1456 1461 1452 1439
1510 1512 1513 1514 1515 1516 1516 1516 1516 1516 1516 1516 1515 1516 1514 1508 1503 1505 1507 1509 1509 1508 1507 1504 1506 1500 1501 1502 1498 1494 1496 1485 1482 1475 1480 1480 1490 1492 1493 1496 1481 1442 1453 1454 1441 1436 1434
1505 1507 1508 1508 1509 1510 1511 1511 1511 1510 1510 1511 1511 1509 1508 1502 1495 1495 1495 1496 1500 1501 1502 1499 1497 1495 1492 1494 1493 1491 1484 1485 1478 1473 1466 1473 1456 1455 1464 1455 1439 1439 1432 1434 1433 1433 1433